{"data":{"norad_id":61564,"intl_designator":"2024-185N","name":"QIANFAN-31","alt_names":[],"object_type":"PAYLOAD","status":"ACTIVE","operator":null,"country":"PRC","launch_date":"2024-10-15","launch_site_code":"TAISC","launch_vehicle":null,"mission":null,"orbit_class":"UNKNOWN","rcs_meters":null,"size_class":null,"mass_kg":null,"dimensions":null,"purposes":[],"wikipedia_slug":null,"has_3d_model":false,"image_url":null,"decayed_at":null,"tle_current":{"epoch":"2026-09-22T20:50:45.436416Z","epoch_age_seconds":92781,"freshness":"FRESH","line1":"1 61564U 24185N   26265.86858144  .00000146  00000+0  18579-3 0  9990","line2":"2 61564  88.9812  50.9282 0005256 280.8001  79.2562 13.58065947106728","mean_motion":13.58065947,"eccentricity":0.0005256,"inclination_deg":88.9812,"raan_deg":50.9282,"arg_perigee_deg":280.8001,"mean_anomaly_deg":79.2562,"bstar":0.00018579,"rev_number":10672,"period_min":106.03314243914,"perigee_km":1038.8287991865,"apogee_km":1046.6296137427,"semimajor_km":7420.8662064646,"source":"CELESTRAK","updated_at":"2026-09-23T09:00:20.906374Z"}}}